Regional Weather Roundup
Issued by NWS

Home | Current Version | Previous Version | Graphics & Text | Print | Product List | Glossary Off
Versions: 1 2 3 4 5 6 7 8 9 10 11 12 13 14 15 16 17 18 19 20 21 22 23 24 25 26 27 28 29 30 31 32 33 34 35 36 37 38 39 40 41 42 43 44 45 46 47 48 49 50

000
ASUS43 KTOP 131159
RWRKS

WEATHER ROUNDUP FOR KANSAS
NATIONAL WEATHER SERVICE GOODLAND KS
700 AM CDT SUN JUL 13 2014

NOTE:  "FAIR" INDICATES FEW OR NO CLOUDS BELOW 12,000 FEET WITH NO
SIGNIFICANT WEATHER AND/OR OBSTRUCTIONS TO VISIBILITY.

KSZ001>006-013>018-027>032-041>047-131300-
NORTHWEST KANSAS

CITY           SKY/WX    TMP DP  RH WIND       PRES   REMARKS
GOODLAND       CLOUDY    63  61  93 N5        30.22F
6HR MIN TEMP:  63; 6HR MAX TEMP:  71;

HAYS           MOCLDY    70  63  78 N13       30.13R
HILL CITY      MOCLDY    69  66  90 MISG      30.16S
6HR MIN TEMP:  68; 6HR MAX TEMP:  74;

RUSSELL        MOCLDY    69  66  90 N12       30.09S
6HR MIN TEMP:  69; 6HR MAX TEMP:  76;

$$

KSZ061>065-074>080-084>089-131300-
SOUTHWEST KANSAS

CITY           SKY/WX    TMP DP  RH WIND       PRES   REMARKS
DODGE CITY     MOCLDY    69  65  86 N12       30.13F
6HR MIN TEMP:  69; 6HR MAX TEMP:  75;

ELKHART          N/A     67  60  78 NW7         N/A
GARDEN CITY    CLOUDY    70  63  78 NE8       30.14F
6HR MIN TEMP:  68; 6HR MAX TEMP:  75;

GREAT BEND     CLOUDY    72  66  83 NW14      30.10R
LIBERAL        MOCLDY    68  61  77 N7        30.19F
$$

KSZ066>073-081>083-090>101-131300-
SOUTHEAST KANSAS

CITY           SKY/WX    TMP DP  RH WIND       PRES   REMARKS
CHANUTE        PTCLDY    69  62  78 NE5       30.04R
6HR MIN TEMP:  69; 6HR MAX TEMP:  76;

COFFEYVILLE    CLEAR     70  64  81 S5        30.03R
6HR MIN TEMP:  69; 6HR MAX TEMP:  77;

HUTCHINSON     MOCLDY    74  68  81 NW12      30.02R
6HR MIN TEMP:  73; 6HR MAX TEMP:  82; 6HR PCP: TRACE;

MEDICINE LODGE   N/A     75  71  87 N12       30.04S
NEWTON         MOCLDY    73  54  49 SW6       30.03S
PARSONS        PTCLDY    70  62  76 S5        30.03S
6HR MIN TEMP:  69; 6HR MAX TEMP:  75;

WICHITA INTL   MOCLDY    70  60  70 SW9       30.00S
6HR MIN TEMP:  70; 6HR MAX TEMP:  75;

WICHITA JABRA  PTCLDY    76  58  53 SW12      29.99F
6HR MIN TEMP:  75; 6HR MAX TEMP:  80;

WINFIELD       CLEAR     69  62  78 S5        30.03S
6HR MIN TEMP:  68; 6HR MAX TEMP:  78;

$$

KSZ007>012-019>026-033>040-048>060-102>105-131300-
NORTHEAST KANSAS

CITY           SKY/WX    TMP DP  RH WIND       PRES   REMARKS
CONCORDIA      MOCLDY    69  68  96 N6        30.06R
6HR MIN TEMP:  69; 6HR MAX TEMP:  75; 6HR PCP: TRACE;

EMPORIA        MOCLDY    71  66  84 SE10      30.01F
6HR MIN TEMP:  71; 6HR MAX TEMP:  79; 6HR PCP: TRACE;

LAWRENCE       LGT RAIN  72  69  90 S6        30.04R
6HR MIN TEMP:  72; 6HR MAX TEMP:  82; 6HR PCP:  0.06;

MANHATTAN      CLOUDY    73  70  90 E3        30.03R
6HR MIN TEMP:  72; 6HR MAX TEMP:  80; 6HR PCP:  0.07;

OLATHE IND     CLOUDY    73  68  84 NE7       30.04F
6HR MIN TEMP:  73; 6HR MAX TEMP:  79; 6HR PCP: TRACE;

OLATHE EXE     CLOUDY    73  67  81 N5        30.05R
6HR MIN TEMP:  73; 6HR MAX TEMP:  79;

SALINA         PTCLDY    73  68  84 NW8       30.04R
6HR MIN TEMP:  72; 6HR MAX TEMP:  84; 6HR PCP: TRACE;

TOPEKA BILLARD TSTM      73  70  90 E8        29.99F
6HR MIN TEMP:  73; 6HR MAX TEMP:  83; 6HR PCP:  0.10;

TOPEKA FORBES  TSTM      73  70  90 SE14      30.01F
6HR MIN TEMP:  73; 6HR MAX TEMP:  79; 6HR PCP:  0.06;

$$


USA.gov is the U.S. government's official web portal to all federal, state and local government web resources and services.